Wind_Speed
50 52 55 57 60 62 65 68 70 72 75 77 79 81 82 83 84 84 85 85 85 85 85 85 84 83 83 82 82 82 82 81 79 74 75 75 75 74 74 74 73 73 72
55 57 60 62 65 68 70 73 75 77 80 82 83 84 85 85 85 85 85 85 85 85 84 84 84 83 83 82 81 81 80 79 78 74 73 74 73 73 73 73 72 72 71
60 62 65 68 70 73 75 78 80 82 83 84 85 86 86 85 85 85 84 84 83 82 82 81 80 80 79 78 78 77 76 76 75 73 70 71 71 71 71 71 71 70 70
65 67 70 73 75 78 80 81 83 85 86 86 86 86 85 85 83 82 82 81 79 78 76 75 75 74 74 73 73 72 72 71 71 70 68 68 68 68 69 69 69 69 69
69 72 75 77 79 81 83 84 85 86 87 87 86 85 83 81 79 78 76 74 72 71 69 68 68 68 67 67 67 66 66 66 66 66 64 64 65 65 66 67 68 68 68
73 76 78 80 82 84 85 86 87 87 86 85 83 81 78 75 73 71 69 67 65 64 62 62 61 61 61 61 61 61 61 61 61 61 61 60 60 61 63 64 64 65 64
77 79 81 83 84 85 87 87 87 86 84 81 77 74 71 68 66 64 62 61 59 58 57 57 56 56 56 56 57 57 57 58 58 58 58 57 58 59 60 61 62 62 63
80 81 83 85 86 87 87 86 85 82 79 75 71 68 65 62 60 59 59 58 56 55 54 53 52 52 52 53 53 53 53 54 54 55 55 54 56 58 59 60 61 61 61
82 83 84 86 87 87 86 83 79 76 72 68 64 62 60 57 57 56 55 53 52 50 50 49 49 48 49 49 49 49 49 50 51 52 53 53 54 55 57 58 59 60 60
83 84 85 86 86 85 82 77 73 69 66 62 59 57 56 54 53 52 51 50 48 47 46 45 45 45 45 46 46 46 46 47 48 50 51 52 52 53 54 55 56 57 57
84 85 85 85 82 79 75 70 67 64 60 57 55 53 53 52 50 49 48 47 46 44 43 42 42 43 43 43 43 44 44 45 46 48 49 50 51 51 52 53 54 54 54
84 85 83 80 76 72 68 64 61 59 56 54 52 50 49 49 48 47 46 45 44 43 42 41 41 41 41 42 43 43 44 45 45 46 46 47 49 50 51 52 53 53 54
84 82 78 74 69 66 63 60 57 55 53 52 50 48 46 45 44 44 43 43 43 43 42 41 40 40 40 41 42 42 42 43 44 44 44 45 46 47 49 50 51 52 52
81 77 72 68 64 60 57 55 53 52 51 50 48 46 44 42 42 41 41 41 41 41 41 40 40 39 39 38 38 39 40 40 41 41 42 43 43 44 45 46 47 47 48
76 71 67 63 59 55 52 51 50 49 50 49 47 45 43 41 40 40 39 39 39 39 39 38 38 37 37 37 37 38 38 39 39 40 41 41 42 43 43 44 45 46 46
71 66 62 57 54 51 49 47 46 47 47 47 46 45 43 42 40 40 39 39 39 38 38 37 36 35 35 36 37 38 38 38 38 38 39 39 40 40 40 41 43 44 44
66 61 57 53 51 49 47 46 44 43 43 43 44 43 42 41 40 39 39 38 38 37 37 36 35 35 35 35 36 36 37 37 37 37 37 38 38 38 39 40 41 42 42
60 56 53 50 48 47 46 45 44 42 40 39 40 41 41 40 39 38 37 36 35 35 35 34 33 33 33 34 34 34 35 35 35 35 35 35 36 37 37 38 38 38 39
55 52 49 48 47 45 45 44 43 42 41 39 38 38 38 38 37 37 36 35 34 34 34 34 34 34 34 34 33 33 33 33 33 33 32 32 32 33 33 34 34 35 36
50 49 48 47 45 44 43 42 42 41 40 38 37 37 36 36 35 35 35 34 34 33 33 33 34 34 34 33 32 32 31 31 30 30 30 30 30 31 31 31 32 32 33
48 46 46 45 43 42 41 41 40 39 38 36 36 37 36 35 34 33 33 33 33 33 34 34 34 34 33 32 30 29 29 28 28 28 29 29 29 29 29 29 29 30 31
46 44 43 42 40 39 39 39 39 38 37 36 35 35 35 34 33 33 33 34 34 34 34 33 33 32 30 29 28 28 27 27 26 27 27 27 27 28 28 28 28 29 30
43 42 41 40 39 38 38 38 38 37 35 34 34 34 33 33 32 33 33 33 33 33 32 32 31 30 28 27 26 25 25 24 25 25 25 25 25 26 27 28 28 29 29
40 40 38 37 37 36 36 36 36 35 34 34 33 33 33 32 32 32 32 32 32 31 31 30 29 28 27 26 25 25 24 25 25 25 25 24 24 24 25 25 26 26 27
38 37 36 36 35 35 34 34 34 33 33 33 32 32 31 31 31 31 31 31 31 30 29 29 29 28 27 26 25 25 25 25 25 25 24 24 24 23 23 23 23 24 25
36 35 35 34 34 33 33 33 33 32 32 31 31 30 30 30 30 30 30 30 29 29 29 29 28 27 26 25 25 24 25 24 24 24 24 24 24 23 23 24 24 25 25
Wind_Direction
303 302 302 302 302 301 301 300 299 299 298 297 296 295 294 293 292 290 289 287 286 284 282 281 279 277 276 274 273 273 272 272 271 269 268 268 267 267 267 267 267 268 268
303 303 303 303 302 302 301 301 300 299 299 298 297 296 295 294 293 291 290 288 286 284 282 280 278 277 276 274 273 273 272 271 271 270 268 268 268 267 267 267 267 267 267
304 304 303 303 303 302 302 301 301 300 300 299 299 298 297 296 294 292 290 288 286 284 282 280 279 277 276 275 274 273 272 271 270 269 268 268 267 267 267 267 266 266 266
304 304 304 304 304 304 303 303 302 302 301 301 300 300 299 297 295 293 290 289 287 285 283 282 280 279 277 276 275 274 273 272 271 269 267 266 266 265 265 266 265 265 265
305 306 306 305 305 305 304 304 304 303 303 303 302 301 300 298 296 294 292 290 289 287 285 284 282 281 279 277 276 275 273 272 271 270 268 267 266 265 265 264 264 264 264
306 306 306 306 306 306 306 305 305 305 305 304 303 302 300 299 297 295 294 292 291 289 287 286 284 282 280 278 276 275 274 273 272 271 269 268 266 265 264 264 264 264 264
307 308 308 308 307 307 307 307 307 307 306 305 304 302 301 299 298 296 295 295 294 292 290 288 285 282 280 279 277 275 274 273 272 271 269 268 266 265 265 264 264 264 264
309 309 309 309 309 309 309 309 308 307 306 305 304 303 302 301 299 298 297 296 295 294 291 289 287 283 281 279 278 276 275 274 273 271 270 268 267 266 266 266 265 266 266
310 310 310 310 310 310 310 310 309 308 307 306 305 304 303 302 301 300 298 298 297 295 293 291 289 286 283 280 279 277 275 274 273 272 272 271 269 268 267 267 267 267 267
311 311 311 312 312 311 311 310 309 309 308 307 307 306 305 304 303 301 300 299 298 296 294 292 290 288 286 283 281 279 278 275 274 273 273 272 271 270 269 269 268 268 268
312 313 313 313 312 312 311 311 310 310 309 309 308 308 307 306 305 304 303 301 300 299 297 294 291 289 287 285 284 282 280 278 276 274 273 273 272 272 271 271 270 269 269
313 313 313 313 312 312 311 311 311 311 311 311 310 309 308 307 306 305 304 303 302 301 299 296 293 290 288 287 285 284 282 280 279 277 275 274 272 272 271 271 270 270 270
314 314 313 313 312 312 312 312 312 312 312 312 312 311 310 309 307 306 306 304 304 303 302 299 296 293 290 288 286 285 284 283 281 279 278 276 275 273 272 271 270 270 270
314 314 313 313 312 312 312 313 313 313 313 313 313 312 311 310 308 307 306 305 304 303 303 301 299 296 294 291 289 287 286 285 284 282 280 278 277 275 273 272 271 271 270
314 314 313 313 313 313 313 313 314 314 315 315 314 314 314 312 311 310 309 308 306 305 303 302 300 297 294 292 291 289 288 287 286 284 282 280 278 276 274 273 272 271 271
314 314 313 313 313 313 313 314 315 316 316 315 315 316 316 316 315 313 312 311 309 308 306 304 301 298 295 292 291 290 289 288 286 285 284 283 281 278 276 274 273 272 271
314 314 314 314 314 314 315 315 315 316 316 316 315 316 316 317 316 315 314 312 311 310 309 307 304 301 299 296 293 291 289 288 287 286 285 283 281 279 278 277 275 274 273
314 314 314 315 315 315 316 317 317 317 317 316 315 315 316 317 317 317 316 315 313 313 312 311 309 307 304 301 298 295 292 290 288 287 285 283 281 280 280 279 277 275 274
313 313 314 315 315 316 317 317 318 318 318 318 317 317 317 318 318 318 318 317 316 314 313 312 311 309 308 305 302 299 296 293 291 289 287 285 283 282 281 280 279 277 276
313 313 314 315 315 316 317 318 319 319 319 319 319 318 318 319 319 319 319 318 318 317 315 314 312 311 310 308 305 302 299 297 295 292 290 287 284 283 282 281 280 279 278
312 313 314 315 316 317 318 319 319 320 320 320 320 320 321 321 321 320 320 320 319 318 317 316 314 313 311 310 308 306 304 301 298 296 293 290 287 285 283 282 282 281 280
312 313 315 315 316 317 318 319 320 320 320 320 321 322 323 323 322 322 322 322 321 320 320 319 318 316 314 312 311 309 308 306 304 302 299 295 291 288 285 284 284 283 283
312 313 315 316 317 317 318 319 320 321 321 322 322 323 324 324 324 324 324 324 324 323 323 323 322 321 319 317 315 314 313 312 310 308 305 300 296 292 289 287 286 285 285
312 314 315 316 317 317 318 319 320 321 321 322 323 324 324 324 325 326 327 327 327 327 328 328 327 326 324 321 319 317 316 315 314 312 309 305 302 298 295 293 291 289 288
312 314 315 316 317 317 318 319 320 321 322 323 323 324 325 326 327 328 329 330 330 330 330 330 329 328 326 324 322 319 318 317 316 315 313 310 307 303 300 297 295 294 292
312 313 315 316 317 318 318 319 320 321 322 323 324 325 325 327 328 330 330 331 333 333 334 334 334 333 331 328 326 324 322 320 318 317 315 314 311 307 302 300 298 297 295
Height
5710 5705 5699 5693 5687 5680 5674 5666 5659 5652 5643 5635 5627 5619 5610 5601 5593 5584 5578 5570 5564 5558 5552 5545 5542 5536 5532 5529 5525 5523 5521 5519 5523 5534 5531 5529 5528 5528 5527 5527 5528 5529 5531
5697 5691 5685 5679 5672 5664 5656 5648 5640 5631 5622 5613 5604 5595 5586 5577 5567 5559 5551 5544 5536 5531 5525 5518 5515 5509 5506 5503 5499 5498 5497 5496 5496 5505 5508 5505 5505 5505 5505 5505 5507 5508 5510
5684 5677 5670 5662 5655 5646 5638 5628 5619 5610 5600 5590 5580 5570 5561 5551 5541 5532 5523 5516 5509 5503 5497 5491 5488 5482 5480 5477 5474 5473 5473 5472 5472 5477 5484 5482 5483 5483 5483 5484 5485 5486 5488
5669 5661 5653 5645 5636 5627 5617 5608 5597 5587 5577 5566 5556 5545 5535 5525 5515 5505 5497 5490 5483 5477 5472 5467 5463 5458 5456 5453 5451 5451 5450 5449 5450 5453 5458 5460 5460 5461 5461 5464 5463 5464 5466
5653 5644 5636 5626 5616 5606 5596 5586 5575 5563 5552 5541 5530 5520 5509 5498 5489 5479 5472 5465 5459 5454 5449 5444 5440 5436 5433 5431 5430 5430 5428 5428 5429 5431 5435 5437 5438 5439 5441 5441 5442 5443 5445
5636 5627 5617 5607 5597 5585 5574 5563 5552 5540 5529 5517 5506 5495 5486 5475 5465 5456 5448 5443 5438 5433 5429 5425 5421 5417 5414 5411 5410 5409 5409 5409 5410 5411 5413 5416 5418 5418 5419 5420 5421 5423 5427
5618 5608 5597 5586 5576 5564 5552 5540 5528 5517 5506 5494 5483 5473 5464 5455 5445 5437 5430 5423 5419 5415 5410 5406 5403 5399 5396 5394 5392 5391 5391 5390 5391 5392 5394 5397 5398 5399 5399 5400 5401 5403 5406
5599 5588 5576 5565 5554 5542 5530 5517 5505 5494 5483 5473 5463 5453 5444 5437 5428 5420 5413 5408 5403 5398 5393 5389 5385 5383 5380 5377 5376 5375 5374 5374 5373 5374 5376 5379 5378 5379 5379 5381 5381 5383 5386
5580 5568 5556 5544 5532 5520 5508 5496 5484 5473 5463 5453 5444 5435 5427 5420 5412 5404 5398 5392 5388 5383 5378 5374 5370 5367 5364 5361 5360 5359 5359 5358 5357 5357 5358 5359 5360 5360 5361 5362 5363 5364 5367
5561 5549 5536 5522 5510 5498 5486 5475 5464 5453 5444 5436 5428 5420 5411 5404 5397 5390 5383 5378 5374 5369 5365 5360 5356 5352 5350 5347 5345 5344 5344 5343 5342 5341 5341 5342 5342 5342 5342 5343 5344 5345 5347
5541 5529 5516 5502 5489 5478 5467 5457 5446 5437 5429 5421 5413 5406 5398 5390 5383 5376 5370 5364 5360 5355 5351 5347 5343 5339 5336 5333 5331 5330 5329 5327 5327 5326 5326 5325 5325 5325 5325 5325 5326 5327 5328
5523 5510 5498 5485 5471 5460 5450 5441 5431 5422 5414 5407 5399 5393 5385 5377 5370 5364 5358 5352 5347 5342 5338 5335 5331 5327 5323 5321 5318 5316 5314 5313 5312 5311 5310 5310 5309 5308 5307 5307 5307 5308 5310
5504 5491 5479 5468 5456 5445 5435 5426 5418 5409 5400 5393 5386 5380 5374 5367 5359 5352 5347 5341 5335 5330 5326 5322 5318 5314 5311 5308 5305 5302 5300 5298 5297 5296 5295 5294 5292 5291 5290 5290 5290 5291 5291
5485 5473 5462 5451 5442 5432 5422 5413 5404 5396 5388 5381 5374 5368 5362 5356 5349 5342 5336 5331 5325 5319 5314 5310 5305 5301 5298 5295 5292 5290 5287 5285 5283 5281 5279 5278 5277 5276 5275 5274 5274 5274 5274
5467 5456 5446 5437 5427 5419 5411 5402 5393 5385 5376 5368 5362 5356 5350 5344 5338 5331 5325 5320 5314 5308 5303 5299 5294 5290 5286 5283 5280 5277 5274 5272 5270 5267 5265 5264 5262 5261 5260 5259 5258 5258 5258
5450 5441 5432 5423 5415 5406 5399 5393 5384 5375 5367 5358 5350 5344 5338 5332 5326 5320 5314 5308 5303 5297 5292 5287 5283 5279 5275 5271 5268 5265 5262 5259 5257 5254 5251 5249 5248 5246 5245 5244 5243 5243 5242
5435 5426 5418 5410 5402 5394 5387 5380 5374 5368 5359 5350 5342 5335 5328 5322 5316 5310 5304 5298 5293 5287 5282 5277 5272 5268 5263 5259 5256 5253 5250 5247 5244 5241 5239 5236 5234 5233 5231 5230 5229 5228 5227
5422 5413 5406 5398 5391 5383 5376 5369 5362 5355 5350 5343 5335 5327 5320 5314 5307 5301 5295 5289 5284 5278 5273 5268 5263 5258 5253 5249 5244 5241 5237 5234 5231 5229 5226 5224 5222 5220 5218 5217 5215 5214 5213
5410 5403 5395 5388 5380 5373 5366 5359 5352 5345 5339 5332 5326 5320 5312 5306 5299 5293 5286 5281 5275 5270 5265 5259 5254 5249 5244 5239 5234 5230 5226 5223 5220 5217 5214 5212 5210 5208 5206 5204 5203 5201 5200
5399 5392 5384 5377 5370 5363 5356 5349 5343 5336 5330 5323 5317 5311 5305 5298 5292 5286 5279 5273 5267 5262 5256 5251 5246 5240 5235 5229 5224 5220 5216 5213 5209 5206 5203 5201 5199 5197 5195 5193 5191 5190 5188
5389 5382 5374 5367 5360 5354 5347 5340 5334 5327 5321 5315 5309 5302 5296 5290 5284 5278 5272 5266 5260 5254 5248 5243 5237 5231 5225 5220 5215 5211 5207 5203 5200 5196 5193 5190 5188 5186 5184 5182 5181 5179 5177
5377 5371 5364 5358 5351 5345 5339 5332 5326 5319 5313 5307 5301 5295 5289 5283 5277 5271 5265 5259 5252 5246 5240 5234 5228 5222 5217 5212 5207 5203 5199 5195 5191 5188 5184 5181 5179 5176 5174 5172 5171 5169 5167
5367 5361 5355 5349 5343 5337 5331 5324 5318 5312 5306 5300 5294 5288 5282 5276 5270 5264 5258 5252 5245 5239 5233 5226 5221 5215 5210 5205 5200 5196 5191 5187 5184 5180 5176 5173 5170 5167 5165 5163 5161 5159 5157
5357 5352 5346 5340 5334 5329 5323 5317 5311 5305 5299 5293 5288 5282 5276 5270 5264 5258 5252 5245 5239 5233 5226 5220 5215 5209 5204 5199 5194 5189 5185 5181 5177 5173 5169 5165 5162 5159 5156 5154 5151 5149 5147
5348 5343 5337 5332 5326 5321 5315 5310 5304 5298 5293 5287 5281 5276 5270 5264 5258 5252 5246 5240 5234 5227 5221 5215 5209 5204 5198 5193 5188 5184 5179 5175 5170 5166 5162 5158 5154 5151 5148 5146 5143 5141 5139
5339 5334 5329 5324 5319 5313 5308 5303 5297 5292 5286 5281 5275 5270 5264 5259 5253 5247 5241 5235 5229 5223 5217 5211 5205 5199 5194 5188 5183 5178 5174 5169 5165 5160 5156 5152 5148 5144 5141 5138 5136 5133 5131